"SCET";"TARGET";"ELECTRON_DENSITY";"ERROR_FLAG";"ELECTRON_DENSITY_ERROR";"FREQ_FCE";"MEASURED_VALUE";"MEASURED_ITEM";"FREQ_PLASMA";"FREQ_UPPER_HYBRID";"FREQ_R_EQUALS_ZERO";"FREQ_L_EQUALS_ZERO";"ORBIT_NUMBER";"SATURN_RADIUS";"SATURN_IAU_LONGITUDE";"SATURN_SLS4_S_LONGITUDE";"SATURN_SLS4_N_LONGITUDE";"SATURN_SLS5_S_LONGITUDE";"SATURN_SLS5_N_LONGITUDE";"SATURN_LOCAL_TIME";"SATURN_KRONOGRAPHIC_LATITUDE";"SATURN_MAGNETIC_LATITUDE";"SATURN_L";"SATURN_L_OFFSET";"SATURN_SOLAR_EQUATORIAL_X";"SATURN_SOLAR_EQUATORIAL_Y";"SATURN_SOLAR_EQUATORIAL_Z";"SATURN_ALTITUDE";"ENCELADUS_ENCOUNTER_NUMBER";"ENCELADUS_RADIUS";"ENCELADUS_COROTATIONAL_X";"ENCELADUS_COROTATIONAL_Y";"ENCELADUS_COROTATIONAL_Z";"ENCELADUS_TRUE_ANOMALY";"ENCELADUS_PERIAPSIS_TIME";"JUPITER_RADIUS";"JUPITER_SYSTEMIII_LONGITUDE";"JUPITER_MAGNETIC_LATITUDE";"JUPITER_MAGNETIC_LOCAL_TIME";"JUPITER_L";"IO_PHASE";"EARTH_RADIUS";"EARTH_MAGNETIC_LATITUDE";"EARTH_LOCAL_TIME";"EARTH_L"
"[UTC]";"[0=Saturn, 1=Enceladus, 2=Jupiter, 3=Earth]";"[cm-3]";"[0=automated, 1=manual]";"[normalized density error]";"[Hz]";"[Hz]";"[0=upper hybrid frequency, 1=plasma frequency cutoff]";"[Hz]";"[Hz]";"[Hz]";"[Hz}";"[0, A, B, C, 3, 4, ... , 292, 293]";"[Rs where 1Rs=60268km]";"[degrees]";"[degrees]";"[degrees]";"[degrees]";"[degrees]";"[hours]";"[degrees]";"[degrees where offset=2293km north]";"[Rs where 1Rs=60268km]";"[Rs where 1Rs=60268km and offset=2293km north]";"[Rs where 1Rs=60268km]";"[Rs where 1Rs=60268km]";"[Rs where 1Rs=60268km]";"[km where ellipsoid a,b=60268km and c=54364km]";"[E0, E1, E2, ... , E21, E22]";"[Renc where 1Renc=252.1km]";"[Renc where 1Renc=252.1km]";"[Renc where 1Renc=252.1km]";"[Renc where 1Renc=252.1km]";"[degrees]";"[UTC]";"[Rj where 1Rj=71492km]";"[degrees]";"[degrees using JRM09 model]";"[hours using JRM09 model]";"[Rj where 1Rj=71492km]";"[degrees]";"[Re where 1Re=6378.1366km]";"[degrees]";"[hours]";"[Re where 1Re=6378.1366km]"
2010-06-03T00:00:13.077Z;0;9.9470e+00;0;     0.177;  2254.756;  28411.111; 0;  28321.500;  28411.111;  29471.307;  27216.551;132;   6.316; 273.056;;; 132.544; 135.544;  23.284;  11.105;  10.766;   6.559;   6.302;  -6.089;   1.155;   1.216;;;;;;;;;;;;;;;;;;
2010-06-03T00:00:21.077Z;0;9.7890e+00;0;     0.189;  2254.756;  28186.336; 0;  28096.008;  28186.336;  29245.994;  26991.238;132;   6.315; 273.120;;; 132.608; 135.608;  23.285;  11.104;  10.765;   6.558;   6.301;  -6.088;   1.153;   1.216;;;;;;;;;;;;;;;;;;
2010-06-03T00:00:37.077Z;0;9.8490e+00;0;     0.139;  2254.756;  28271.455; 0;  28181.398;  28271.455;  29331.318;  27076.562;132;   6.312; 273.249;;; 132.735; 135.735;  23.286;  11.102;  10.763;   6.555;   6.299;  -6.086;   1.150;   1.215;;;;;;;;;;;;;;;;;;
2010-06-03T00:00:45.077Z;0;9.8900e+00;0;     0.147;  2254.756;  28330.145; 0;  28240.275;  28330.145;  29390.148;  27135.391;132;   6.311; 273.313;;; 132.799; 135.799;  23.287;  11.102;  10.762;   6.554;   6.297;  -6.085;   1.149;   1.215;;;;;;;;;;;;;;;;;;
2010-06-03T00:00:53.077Z;0;1.0400e+01;0;     0.167;  2254.756;  29047.812; 0;  28960.170;  29047.812;  30109.484;  27854.729;132;   6.310; 273.377;;; 132.863; 135.863;  23.288;  11.101;  10.762;   6.553;   6.296;  -6.084;   1.148;   1.215;;;;;;;;;;;;;;;;;;
2010-06-03T00:01:01.077Z;0;1.0260e+01;0;     0.173;  2263.912;  28859.068; 0;  28770.133;  28859.068;  29924.348;  27660.436;132;   6.308; 273.441;;; 132.926; 135.926;  23.289;  11.100;  10.761;   6.551;   6.295;  -6.083;   1.146;   1.215;;;;;;;;;;;;;;;;;;
2010-06-03T00:01:09.077Z;0;9.9610e+00;0;     0.214;  2263.912;  28432.547; 0;  28342.273;  28432.547;  29496.824;  27232.912;132;   6.307; 273.505;;; 132.990; 135.990;  23.289;  11.099;  10.760;   6.550;   6.294;  -6.082;   1.145;   1.214;;;;;;;;;;;;;;;;;;
2010-06-03T00:01:25.077Z;0;1.0290e+01;0;     0.150;  2263.912;  28890.824; 0;  28801.986;  28890.824;  29956.178;  27692.266;132;   6.305; 273.633;;; 133.117; 136.117;  23.291;  11.098;  10.758;   6.547;   6.291;  -6.081;   1.142;   1.214;;;;;;;;;;;;;;;;;;
2010-06-03T00:01:33.077Z;0;9.9100e+00;0;     0.149;  2263.912;  28360.205; 0;  28269.699;  28360.205;  29424.309;  27160.396;132;   6.303; 273.697;;; 133.181; 136.181;  23.291;  11.097;  10.758;   6.546;   6.290;  -6.080;   1.141;   1.213;;;;;;;;;;;;;;;;;;
2010-06-03T00:01:41.077Z;0;1.0230e+01;0;     0.113;  2263.912;  28813.820; 0;  28724.744;  28813.820;  29878.996;  27615.084;132;   6.302; 273.761;;; 133.244; 136.244;  23.292;  11.096;  10.757;   6.545;   6.289;  -6.079;   1.139;   1.213;;;;;;;;;;;;;;;;;;
2010-06-03T00:01:49.077Z;0;1.0400e+01;0;     0.118;  2263.912;  29051.129; 0;  28962.783;  29051.129;  30116.852;  27852.939;132;   6.301; 273.825;;; 133.308; 136.308;  23.293;  11.096;  10.756;   6.543;   6.287;  -6.078;   1.138;   1.213;;;;;;;;;;;;;;;;;;
2010-06-03T00:01:57.077Z;0;9.8470e+00;0;     0.117;  2263.912;  28269.328; 0;  28178.531;  28269.328;  29333.213;  27069.303;132;   6.300; 273.889;;; 133.372; 136.372;  23.294;  11.095;  10.755;   6.542;   6.286;  -6.077;   1.136;   1.212;;;;;;;;;;;;;;;;;;
2010-06-03T00:02:13.076Z;0;1.0340e+01;0;     0.135;  2274.804;  28967.229; 0;  28877.770;  28967.229;  30037.562;  27762.758;132;   6.297; 274.017;;; 133.499; 136.499;  23.295;  11.093;  10.753;   6.539;   6.284;  -6.075;   1.134;   1.212;;;;;;;;;;;;;;;;;;
2010-06-03T00:02:21.076Z;0;9.9080e+00;0;     0.089;  2274.804;  28358.010; 0;  28266.623;  28358.010;  29426.900;  27152.096;132;   6.296; 274.081;;; 133.562; 136.562;  23.296;  11.093;  10.753;   6.538;   6.282;  -6.074;   1.132;   1.211;;;;;;;;;;;;;;;;;;
2010-06-03T00:02:29.076Z;0;1.0440e+01;0;     0.148;  2274.804;  29099.797; 0;  29010.746;  29099.797;  30170.438;  27895.633;132;   6.295; 274.145;;; 133.626; 136.626;  23.297;  11.092;  10.752;   6.537;   6.281;  -6.073;   1.131;   1.211;;;;;;;;;;;;;;;;;;
2010-06-03T00:02:37.076Z;0;1.0020e+01;0;     0.172;  2274.804;  28523.385; 0;  28432.529;  28523.385;  29592.672;  27317.869;132;   6.294; 274.209;;; 133.690; 136.690;  23.297;  11.091;  10.751;   6.535;   6.280;  -6.072;   1.130;   1.211;;;;;;;;;;;;;;;;;;
2010-06-03T00:02:45.076Z;0;1.0030e+01;0;     0.164;  2274.804;  28532.182; 0;  28441.355;  28532.182;  29601.490;  27326.688;132;   6.292; 274.273;;; 133.753; 136.753;  23.298;  11.090;  10.750;   6.534;   6.279;  -6.071;   1.128;   1.210;;;;;;;;;;;;;;;;;;
2010-06-03T00:03:01.076Z;0;1.0770e+01;0;     0.180;  2283.232;  29554.438; 0;  29466.109;  29554.438;  30629.832;  28346.600;132;   6.290; 274.401;;; 133.880; 136.880;  23.300;  11.089;  10.748;   6.531;   6.276;  -6.069;   1.125;   1.210;;;;;;;;;;;;;;;;;;
2010-06-03T00:03:09.076Z;0;9.8710e+00;0;     0.185;  2283.232;  28306.408; 0;  28214.174;  28306.408;  29378.877;  27095.645;132;   6.289; 274.465;;; 133.944; 136.944;  23.300;  11.088;  10.748;   6.530;   6.275;  -6.068;   1.124;   1.209;;;;;;;;;;;;;;;;;;
2010-06-03T00:03:17.076Z;0;1.0010e+01;0;     0.191;  2283.232;  28504.945; 0;  28413.355;  28504.945;  29577.896;  27294.664;132;   6.287; 274.529;;; 134.008; 137.008;  23.301;  11.087;  10.747;   6.529;   6.274;  -6.067;   1.123;   1.209;;;;;;;;;;;;;;;;;;
2010-06-03T00:03:25.076Z;0;1.0180e+01;0;     0.219;  2283.232;  28743.705; 0;  28652.879;  28743.705;  29817.229;  27533.996;132;   6.286; 274.593;;; 134.071; 137.071;  23.302;  11.087;  10.746;   6.527;   6.272;  -6.066;   1.121;   1.209;;;;;;;;;;;;;;;;;;
2010-06-03T00:03:33.076Z;0;1.0450e+01;0;     0.141;  2283.232;  29118.301; 0;  29028.646;  29118.301;  30192.701;  27909.469;132;   6.285; 274.657;;; 134.135; 137.135;  23.303;  11.086;  10.745;   6.526;   6.271;  -6.065;   1.120;   1.208;;;;;;;;;;;;;;;;;;
2010-06-03T00:03:49.076Z;0;1.0510e+01;0;     0.132;  2283.232;  29202.465; 0;  29113.068;  29202.465;  30277.061;  27993.828;132;   6.282; 274.785;;; 134.262; 137.262;  23.304;  11.084;  10.743;   6.523;   6.269;  -6.063;   1.117;   1.208;;;;;;;;;;;;;;;;;;
2010-06-03T00:03:57.076Z;0;1.0450e+01;0;     0.177;  2283.232;  29112.357; 0;  29022.684;  29112.357;  30186.744;  27903.512;132;   6.281; 274.849;;; 134.325; 137.325;  23.305;  11.083;  10.743;   6.522;   6.268;  -6.062;   1.116;   1.207;;;;;;;;;;;;;;;;;;
2010-06-03T00:04:05.076Z;0;1.0430e+01;0;     0.114;  2294.908;  29094.322; 0;  29003.672;  29094.322;  30173.814;  27878.906;132;   6.280; 274.913;;; 134.389; 137.389;  23.305;  11.083;  10.742;   6.521;   6.266;  -6.061;   1.114;   1.207;;;;;;;;;;;;;;;;;;
2010-06-03T00:04:13.076Z;0;1.0490e+01;0;     0.126;  2294.908;  29174.867; 0;  29084.469;  29174.867;  30254.549;  27959.641;132;   6.279; 274.977;;; 134.452; 137.452;  23.306;  11.082;  10.741;   6.519;   6.265;  -6.060;   1.113;   1.207;;;;;;;;;;;;;;;;;;
2010-06-03T00:04:21.076Z;0;1.0710e+01;0;     0.198;  2294.908;  29475.373; 0;  29385.898;  29475.373;  30555.746;  28260.838;132;   6.277; 275.041;;; 134.516; 137.516;  23.307;  11.081;  10.740;   6.518;   6.264;  -6.059;   1.111;   1.207;;;;;;;;;;;;;;;;;;
2010-06-03T00:04:37.075Z;0;9.9070e+00;0;     0.175;  2294.908;  28357.207; 0;  28264.193;  28357.207;  29434.930;  27140.021;132;   6.275; 275.168;;; 134.643; 137.643;  23.308;  11.080;  10.738;   6.515;   6.261;  -6.057;   1.109;   1.206;;;;;;;;;;;;;;;;;;
2010-06-03T00:04:45.075Z;0;1.0520e+01;0;     0.084;  2294.908;  29218.080; 0;  29127.814;  29218.080;  30297.861;  28002.953;132;   6.274; 275.232;;; 134.707; 137.707;  23.309;  11.079;  10.738;   6.514;   6.260;  -6.056;   1.107;   1.206;;;;;;;;;;;;;;;;;;
2010-06-03T00:04:53.075Z;0;9.8710e+00;0;     0.221;  2294.908;  28306.217; 0;  28213.035;  28306.217;  29383.812;  27088.904;132;   6.272; 275.296;;; 134.770; 137.770;  23.310;  11.078;  10.737;   6.513;   6.259;  -6.055;   1.106;   1.205;;;;;;;;;;;;;;;;;;
2010-06-03T00:05:01.075Z;0;1.0370e+01;0;     0.124;  2307.452;  29008.578; 0;  28916.660;  29008.578;  30093.393;  27785.941;132;   6.271; 275.360;;; 134.834; 137.834;  23.311;  11.077;  10.736;   6.512;   6.258;  -6.054;   1.104;   1.205;;;;;;;;;;;;;;;;;;
2010-06-03T00:05:09.075Z;0;1.0580e+01;0;     0.164;  2307.452;  29302.412; 0;  29211.420;  29302.412;  30387.920;  28080.469;132;   6.270; 275.424;;; 134.897; 137.897;  23.311;  11.077;  10.735;   6.510;   6.256;  -6.053;   1.103;   1.205;;;;;;;;;;;;;;;;;;
2010-06-03T00:05:25.075Z;0;1.0430e+01;0;     0.096;  2307.452;  29099.229; 0;  29007.598;  29099.229;  30184.260;  27876.807;132;   6.267; 275.552;;; 135.024; 138.024;  23.313;  11.075;  10.733;   6.508;   6.254;  -6.052;   1.100;   1.204;;;;;;;;;;;;;;;;;;
2010-06-03T00:05:33.075Z;0;1.0660e+01;0;     0.091;  2307.452;  29410.527; 0;  29319.871;  29410.527;  30496.287;  28188.834;132;   6.266; 275.616;;; 135.088; 138.088;  23.314;  11.074;  10.732;   6.506;   6.253;  -6.051;   1.099;   1.204;;;;;;;;;;;;;;;;;;
2010-06-03T00:05:41.075Z;0;1.0260e+01;0;     0.213;  2307.452;  28852.844; 0;  28760.428;  28852.844;  29937.287;  27629.834;132;   6.265; 275.680;;; 135.151; 138.151;  23.314;  11.073;  10.732;   6.505;   6.251;  -6.050;   1.097;   1.203;;;;;;;;;;;;;;;;;;
2010-06-03T00:05:49.075Z;0;1.0510e+01;0;     0.124;  2307.452;  29208.779; 0;  29117.494;  29208.779;  30294.068;  27986.615;132;   6.264; 275.744;;; 135.215; 138.215;  23.315;  11.073;  10.731;   6.504;   6.250;  -6.049;   1.096;   1.203;;;;;;;;;;;;;;;;;;
2010-06-03T00:05:57.075Z;0;1.0580e+01;0;     0.128;  2307.452;  29306.777; 0;  29215.799;  29306.777;  30392.295;  28084.844;132;   6.262; 275.808;;; 135.278; 138.278;  23.316;  11.072;  10.730;   6.502;   6.249;  -6.048;   1.095;   1.203;;;;;;;;;;;;;;;;;;
2010-06-03T00:06:13.075Z;0;1.0660e+01;0;     0.160;  2318.316;  29408.076; 0;  29316.555;  29408.076;  30498.619;  28180.303;132;   6.260; 275.935;;; 135.405; 138.405;  23.317;  11.070;  10.728;   6.500;   6.246;  -6.046;   1.092;   1.202;;;;;;;;;;;;;;;;;;
2010-06-03T00:06:21.075Z;0;1.0640e+01;0;     0.099;  2318.316;  29376.711; 0;  29285.092;  29376.711;  30467.182;  28148.865;132;   6.259; 275.999;;; 135.469; 138.469;  23.318;  11.070;  10.727;   6.498;   6.245;  -6.045;   1.090;   1.202;;;;;;;;;;;;;;;;;;
2010-06-03T00:06:29.075Z;0;1.0720e+01;0;     0.169;  2318.316;  29496.854; 0;  29405.607;  29496.854;  30587.604;  28269.287;132;   6.257; 276.063;;; 135.532; 138.532;  23.319;  11.069;  10.727;   6.497;   6.244;  -6.044;   1.089;   1.201;;;;;;;;;;;;;;;;;;
2010-06-03T00:06:37.075Z;0;1.0500e+01;0;     0.106;  2318.316;  29191.238; 0;  29099.035;  29191.238;  30281.271;  27962.955;132;   6.256; 276.127;;; 135.596; 138.596;  23.320;  11.068;  10.726;   6.496;   6.243;  -6.043;   1.088;   1.201;;;;;;;;;;;;;;;;;;
2010-06-03T00:06:45.075Z;0;1.0560e+01;0;     0.178;  2318.316;  29279.117; 0;  29187.191;  29279.117;  30369.357;  28051.041;132;   6.255; 276.191;;; 135.659; 138.659;  23.320;  11.067;  10.725;   6.494;   6.241;  -6.042;   1.086;   1.201;;;;;;;;;;;;;;;;;;
2010-06-03T00:07:01.074Z;0;1.0610e+01;0;     0.114;  2327.752;  29349.301; 0;  29256.846;  29349.301;  30443.863;  28116.111;132;   6.252; 276.319;;; 135.786; 138.786;  23.322;  11.066;  10.723;   6.492;   6.239;  -6.040;   1.083;   1.200;;;;;;;;;;;;;;;;;;
2010-06-03T00:07:09.074Z;0;1.0620e+01;0;     0.095;  2327.752;  29361.857; 0;  29269.441;  29361.857;  30456.449;  28128.697;132;   6.251; 276.382;;; 135.849; 138.849;  23.323;  11.065;  10.722;   6.490;   6.238;  -6.039;   1.082;   1.200;;;;;;;;;;;;;;;;;;
2010-06-03T00:07:17.074Z;0;1.0700e+01;0;     0.171;  2327.752;  29462.727; 0;  29370.629;  29462.727;  30557.557;  28229.805;132;   6.250; 276.446;;; 135.913; 138.913;  23.323;  11.064;  10.721;   6.489;   6.236;  -6.038;   1.081;   1.199;;;;;;;;;;;;;;;;;;
2010-06-03T00:07:25.074Z;0;1.0720e+01;0;     0.140;  2327.752;  29495.281; 0;  29403.285;  29495.281;  30590.188;  28262.436;132;   6.249; 276.510;;; 135.976; 138.976;  23.324;  11.063;  10.721;   6.488;   6.235;  -6.037;   1.079;   1.199;;;;;;;;;;;;;;;;;;
2010-06-03T00:07:33.074Z;0;1.0720e+01;0;     0.141;  2327.752;  29494.811; 0;  29402.812;  29494.811;  30589.715;  28261.963;132;   6.247; 276.574;;; 136.040; 139.040;  23.325;  11.062;  10.720;   6.486;   6.234;  -6.036;   1.078;   1.199;;;;;;;;;;;;;;;;;;
2010-06-03T00:07:49.074Z;0;1.0720e+01;0;     0.174;  2327.752;  29489.033; 0;  29397.018;  29489.033;  30583.924;  28256.172;132;   6.245; 276.702;;; 136.167; 139.167;  23.326;  11.061;  10.718;   6.484;   6.231;  -6.034;   1.075;   1.198;;;;;;;;;;;;;;;;;;
2010-06-03T00:07:57.074Z;0;1.0840e+01;0;     0.148;  2327.752;  29655.252; 0;  29563.754;  29655.252;  30750.531;  28422.779;132;   6.244; 276.765;;; 136.230; 139.230;  23.327;  11.060;  10.717;   6.482;   6.230;  -6.033;   1.074;   1.198;;;;;;;;;;;;;;;;;;
2010-06-03T00:08:05.074Z;0;1.1040e+01;0;     0.177;  2336.376;  29925.309; 0;  29833.965;  29925.309;  31025.016;  28688.639;132;   6.243; 276.829;;; 136.293; 139.293;  23.328;  11.059;  10.716;   6.481;   6.229;  -6.032;   1.072;   1.197;;;;;;;;;;;;;;;;;;
2010-06-03T00:08:13.074Z;0;1.0910e+01;0;     0.176;  2336.376;  29747.838; 0;  29655.947;  29747.838;  30847.135;  28510.758;132;   6.241; 276.893;;; 136.357; 139.357;  23.329;  11.059;  10.715;   6.480;   6.228;  -6.031;   1.071;   1.197;;;;;;;;;;;;;;;;;;
2010-06-03T00:08:21.074Z;0;1.0750e+01;0;     0.142;  2336.376;  29531.721; 0;  29439.156;  29531.721;  30630.512;  28294.137;132;   6.240; 276.957;;; 136.420; 139.420;  23.329;  11.058;  10.715;   6.478;   6.227;  -6.030;   1.070;   1.197;;;;;;;;;;;;;;;;;;
2010-06-03T00:08:37.074Z;0;1.0990e+01;0;     0.195;  2336.376;  29857.516; 0;  29765.963;  29857.516;  30957.066;  28620.689;132;   6.238; 277.084;;; 136.547; 139.547;  23.331;  11.056;  10.713;   6.476;   6.224;  -6.028;   1.067;   1.196;;;;;;;;;;;;;;;;;;
2010-06-03T00:08:45.074Z;0;1.0900e+01;0;     0.171;  2336.376;  29745.312; 0;  29653.414;  29745.312;  30844.604;  28508.227;132;   6.236; 277.148;;; 136.610; 139.610;  23.332;  11.055;  10.712;   6.474;   6.223;  -6.027;   1.065;   1.196;;;;;;;;;;;;;;;;;;
2010-06-03T00:08:53.074Z;0;1.0910e+01;0;     0.186;  2336.376;  29751.441; 0;  29659.562;  29751.441;  30850.746;  28514.371;132;   6.235; 277.212;;; 136.674; 139.674;  23.332;  11.055;  10.711;   6.473;   6.222;  -6.026;   1.064;   1.196;;;;;;;;;;;;;;;;;;
2010-06-03T00:09:01.074Z;0;1.0750e+01;0;     0.173;  2348.220;  29531.387; 0;  29437.879;  29531.387;  30635.393;  28287.174;132;   6.234; 277.276;;; 136.737; 139.737;  23.333;  11.054;  10.710;   6.472;   6.220;  -6.025;   1.063;   1.195;;;;;;;;;;;;;;;;;;
2010-06-03T00:09:09.073Z;0;1.0830e+01;0;     0.204;  2348.220;  29640.922; 0;  29547.760;  29640.922;  30745.188;  28396.969;132;   6.233; 277.340;;; 136.801; 139.801;  23.334;  11.053;  10.709;   6.470;   6.219;  -6.024;   1.061;   1.195;;;;;;;;;;;;;;;;;;
2010-06-03T00:09:25.073Z;0;1.0830e+01;0;     0.160;  2348.220;  29643.455; 0;  29550.301;  29643.455;  30747.727;  28399.508;132;   6.230; 277.467;;; 136.927; 139.927;  23.335;  11.051;  10.708;   6.468;   6.217;  -6.022;   1.058;   1.194;;;;;;;;;;;;;;;;;;
2010-06-03T00:09:33.073Z;0;1.0700e+01;0;     0.169;  2348.220;  29464.078; 0;  29370.355;  29464.078;  30567.924;  28219.703;132;   6.229; 277.531;;; 136.991; 139.991;  23.336;  11.051;  10.707;   6.466;   6.215;  -6.021;   1.057;   1.194;;;;;;;;;;;;;;;;;;
2010-06-03T00:09:41.073Z;0;1.0730e+01;0;     0.165;  2348.220;  29505.588; 0;  29411.998;  29505.588;  30609.533;  28261.312;132;   6.228; 277.595;;; 137.054; 140.054;  23.337;  11.050;  10.706;   6.465;   6.214;  -6.020;   1.056;   1.194;;;;;;;;;;;;;;;;;;
2010-06-03T00:09:49.073Z;0;1.1100e+01;0;     0.197;  2348.220;  30013.752; 0;  29921.750;  30013.752;  31118.887;  28770.668;132;   6.226; 277.659;;; 137.117; 140.117;  23.338;  11.049;  10.705;   6.464;   6.213;  -6.019;   1.054;   1.193;;;;;;;;;;;;;;;;;;
2010-06-03T00:10:13.073Z;0;1.0970e+01;0;     0.157;  2361.436;  29838.346; 0;  29744.756;  29838.346;  30948.898;  28587.463;132;   6.223; 277.850;;; 137.307; 140.309;  23.340;  11.047;  10.702;   6.460;   6.209;  -6.016;   1.050;   1.192;;;;;;;;;;;;;;;;;;
2010-06-03T00:10:21.073Z;0;1.0870e+01;0;     0.154;  2361.436;  29698.422; 0;  29604.389;  29698.422;  30808.645;  28447.207;132;   6.221; 277.914;;; 137.371; 140.373;  23.341;  11.046;  10.702;   6.458;   6.208;  -6.015;   1.049;   1.192;;;;;;;;;;;;;;;;;;
2010-06-03T00:10:29.073Z;0;1.0990e+01;0;     0.205;  2361.436;  29861.479; 0;  29767.961;  29861.479;  30972.086;  28610.650;132;   6.220; 277.977;;; 137.434; 140.437;  23.341;  11.045;  10.701;   6.457;   6.207;  -6.014;   1.047;   1.192;;;;;;;;;;;;;;;;;;
2010-06-03T00:10:37.073Z;0;1.1050e+01;0;     0.176;  2361.436;  29947.223; 0;  29853.975;  29947.223;  31058.031;  28696.596;132;   6.219; 278.041;;; 137.497; 140.501;  23.342;  11.044;  10.700;   6.456;   6.205;  -6.013;   1.046;   1.191;;;;;;;;;;;;;;;;;;
2010-06-03T00:10:45.073Z;0;1.1060e+01;0;     0.166;  2361.436;  29959.049; 0;  29865.838;  29959.049;  31069.885;  28708.449;132;   6.218; 278.105;;; 137.561; 140.565;  23.343;  11.043;  10.699;   6.454;   6.204;  -6.012;   1.044;   1.191;;;;;;;;;;;;;;;;;;
2010-06-03T00:11:01.073Z;0;1.1460e+01;0;     0.216;  2370.900;  30496.008; 0;  30403.705;  30496.008;  31612.258;  29241.357;132;   6.215; 278.232;;; 137.687; 140.693;  23.344;  11.042;  10.697;   6.452;   6.202;  -6.011;   1.042;   1.190;;;;;;;;;;;;;;;;;;
2010-06-03T00:11:09.073Z;0;1.0920e+01;0;     0.152;  2370.900;  29767.980; 0;  29673.414;  29767.980;  30882.533;  28511.633;132;   6.214; 278.296;;; 137.751; 140.757;  23.345;  11.041;  10.696;   6.450;   6.200;  -6.010;   1.040;   1.190;;;;;;;;;;;;;;;;;;
2010-06-03T00:11:17.073Z;0;1.0910e+01;0;     0.176;  2370.900;  29760.646; 0;  29666.057;  29760.646;  30875.182;  28504.283;132;   6.213; 278.360;;; 137.814; 140.821;  23.346;  11.040;  10.695;   6.449;   6.199;  -6.009;   1.039;   1.190;;;;;;;;;;;;;;;;;;
2010-06-03T00:11:25.073Z;0;1.1000e+01;0;     0.149;  2370.900;  29871.527; 0;  29777.289;  29871.527;  30986.326;  28615.428;132;   6.211; 278.423;;; 137.877; 140.885;  23.347;  11.039;  10.694;   6.448;   6.198;  -6.008;   1.037;   1.189;;;;;;;;;;;;;;;;;;
2010-06-03T00:11:33.072Z;0;1.1110e+01;0;     0.178;  2370.900;  30031.955; 0;  29938.223;  30031.955;  31147.133;  28776.232;132;   6.210; 278.487;;; 137.941; 140.950;  23.347;  11.038;  10.694;   6.446;   6.197;  -6.007;   1.036;   1.189;;;;;;;;;;;;;;;;;;
2010-06-03T00:11:49.072Z;0;1.1550e+01;0;     0.173;  2370.900;  30610.324; 0;  30518.367;  30610.324;  31726.832;  29355.934;132;   6.208; 278.614;;; 138.067; 141.078;  23.349;  11.037;  10.692;   6.444;   6.194;  -6.005;   1.033;   1.188;;;;;;;;;;;;;;;;;;
2010-06-03T00:11:57.072Z;0;1.1100e+01;0;     0.161;  2370.900;  30009.152; 0;  29915.348;  30009.152;  31124.277;  28753.377;132;   6.206; 278.678;;; 138.131; 141.142;  23.350;  11.036;  10.691;   6.442;   6.193;  -6.004;   1.032;   1.188;;;;;;;;;;;;;;;;;;
2010-06-03T00:12:05.072Z;0;1.1070e+01;0;     0.162;  2382.828;  29975.688; 0;  29880.830;  29975.688;  31095.986;  28713.158;132;   6.205; 278.742;;; 138.194; 141.206;  23.351;  11.035;  10.690;   6.441;   6.192;  -6.003;   1.030;   1.188;;;;;;;;;;;;;;;;;;
2010-06-03T00:12:13.072Z;0;1.1430e+01;0;     0.180;  2382.828;  30452.369; 0;  30359.000;  30452.369;  31573.783;  29190.955;132;   6.204; 278.805;;; 138.257; 141.271;  23.351;  11.034;  10.689;   6.440;   6.190;  -6.002;   1.029;   1.187;;;;;;;;;;;;;;;;;;
2010-06-03T00:12:21.072Z;0;1.1080e+01;0;     0.155;  2382.828;  29987.242; 0;  29892.420;  29987.242;  31107.568;  28724.740;132;   6.203; 278.869;;; 138.320; 141.335;  23.352;  11.034;  10.688;   6.438;   6.189;  -6.001;   1.028;   1.187;;;;;;;;;;;;;;;;;;
2010-06-03T00:12:37.072Z;0;1.1500e+01;0;     0.159;  2382.828;  30548.740; 0;  30455.668;  30548.740;  31670.377;  29287.549;132;   6.200; 278.996;;; 138.447; 141.463;  23.354;  11.032;  10.687;   6.436;   6.187;  -5.999;   1.025;   1.186;;;;;;;;;;;;;;;;;;
2010-06-03T00:12:45.072Z;0;1.1040e+01;0;     0.160;  2382.828;  29931.596; 0;  29836.598;  29931.596;  31051.789;  28668.961;132;   6.199; 279.060;;; 138.510; 141.528;  23.354;  11.031;  10.686;   6.434;   6.185;  -5.998;   1.023;   1.186;;;;;;;;;;;;;;;;;;
2010-06-03T00:12:53.072Z;0;1.1620e+01;0;     0.182;  2382.828;  30702.703; 0;  30610.098;  30702.703;  31824.689;  29441.861;132;   6.198; 279.124;;; 138.573; 141.592;  23.355;  11.030;  10.685;   6.433;   6.184;  -5.997;   1.022;   1.186;;;;;;;;;;;;;;;;;;
2010-06-03T00:13:01.072Z;0;1.0930e+01;0;     0.152;  2393.608;  29786.514; 0;  29690.184;  29786.514;  30911.100;  28517.492;132;   6.196; 279.187;;; 138.637; 141.656;  23.356;  11.030;  10.684;   6.432;   6.183;  -5.996;   1.021;   1.185;;;;;;;;;;;;;;;;;;
2010-06-03T00:13:09.072Z;0;1.1540e+01;0;     0.173;  2393.608;  30597.678; 0;  30503.910;  30597.678;  31724.184;  29330.574;132;   6.195; 279.251;;; 138.700; 141.721;  23.357;  11.029;  10.683;   6.431;   6.182;  -5.995;   1.019;   1.185;;;;;;;;;;;;;;;;;;
2010-06-03T00:13:25.072Z;0;1.1430e+01;0;     0.180;  2393.608;  30455.162; 0;  30360.955;  30455.162;  31581.338;  29187.730;132;   6.193; 279.378;;; 138.826; 141.849;  23.358;  11.027;  10.681;   6.428;   6.179;  -5.993;   1.016;   1.184;;;;;;;;;;;;;;;;;;
2010-06-03T00:13:33.072Z;0;1.0840e+01;0;     0.166;  2393.608;  29659.904; 0;  29563.162;  29659.904;  30784.182;  28390.574;132;   6.191; 279.442;;; 138.890; 141.914;  23.359;  11.026;  10.680;   6.427;   6.178;  -5.992;   1.015;   1.184;;;;;;;;;;;;;;;;;;
2010-06-03T00:13:41.072Z;0;1.1490e+01;0;     0.173;  2393.608;  30527.789; 0;  30433.807;  30527.789;  31654.133;  29260.525;132;   6.190; 279.506;;; 138.953; 141.978;  23.360;  11.025;  10.679;   6.425;   6.177;  -5.991;   1.014;   1.184;;;;;;;;;;;;;;;;;;
2010-06-03T00:13:49.072Z;0;1.1600e+01;0;     0.167;  2393.608;  30676.127; 0;  30582.600;  30676.127;  31802.812;  29409.205;132;   6.189; 279.569;;; 139.016; 142.042;  23.360;  11.025;  10.679;   6.424;   6.175;  -5.990;   1.012;   1.184;;;;;;;;;;;;;;;;;;